Terminal Aerodrome Forecast
Issued by NWS Wilmington, OH

Current Version | Previous Version | Text Only | Print | Product List | Glossary Off
Versions: 1 2 3 4 5 6 7 8 9 10 11 12 13 14 15 16 17 18 19 20 21 22 23 24 25 26

000
FTUS41 KILN 241700 RRA
TAFCVG
TAF
KCVG 241740Z 2418/2524 24007KT P6SM SCT100
     FM241900 26011KT P6SM SCT015 BKN035
      TEMPO 2419/2421 BKN015
     FM242200 25007KT P6SM SCT250
     FM250700 21005KT P6SM OVC150
     FM251500 15005KT P6SM FEW010 SCT040 OVC100
      TEMPO 2517/2519 5SM -RA SCT010 OVC025
     FM251900 14007KT P6SM -RA BKN012 OVC025
      TEMPO 2522/2524 3SM -RA OVC010=

USA.gov is the U.S. government's official web portal to all federal, state and local government web resources and services.